Location: Colossi of Memnon
(25.7167°N, 32.6167°E)
Time: 10:17:15
(UTC+00:00)

Fermi - Pass Details

Date: 05 March 2021
Orbit: 523 x 540 km, 25.6° (Epoch: 19 April)

Event Time Altitude Azimuth Distance (km) Brightness Sun altitude
Exits shadow 02:55:45 38° 257° (WSW) 796 4.1 -17.3°
Maximum altitude 02:57:04 64° 192° (SSW) 577 3.8 -17.0°
Drops below altitude 10° 03:01:04 10° 110° (ESE) 1,743 7.5 -16.1°
Sets 03:03:19 0° 107° (ESE) 2,629 8.8 -15.6°
